[[{"header":{"parameterUnit":"m.s-1","parameterCategory":1,"la1":30.2991,"la2":30.254,"lo1":-89.0895,"lo2":-89.0444,"dy":0.0017,"dx":0.0017,"nx":28,"ny":28,"refTime":"2025-12-21T09:00:00:Z","depth":0,"parameterNumber":2,"parameterNumberName":"U-component_of_WINDS"},"data":[0,0,0,0,0,0,0,0,0,0,0,0,0,0,0,0,0,0,0,0,0,0,0,0,0,0,0,0,0,0,0,0,0,0,0,0,0,0,0,0,0,0,0,0,0,0,0,0,0,0,0,0,0,0,0,0,0,0,-1.6892,-1.6893,0,-1.6963,-1.6963,-1.6964,-1.6964,-1.6963,-1.6962,-1.6961,-1.7037,-1.704,-1.7043,0,0,0,0,0,0,0,0,0,0,0,0,0,-1.6763,-1.6765,-1.6892,-1.6893,-1.6894,-1.6962,-1.6963,-1.6964,-1.6964,-1.6963,-1.6962,-1.6961,-1.7036,-1.704,-1.7043,0,0,0,0,0,0,0,0,0,0,0,0,0,-1.6825,-1.6766,-1.6892,-1.6902,-1.6904,-1.6962,-1.6963,-1.6965,-1.6964,-1.6963,-1.6962,-1.696,-1.7035,-1.704,-1.7044,-1.7098,0,0,-1.7057,-1.7059,0,0,0,0,0,0,0,0,-1.6821,-1.683,-1.69,-1.6901,-1.6903,-1.6953,-1.6946,-1.701,-1.6965,-1.6941,-1.6961,-1.696,-1.7011,-1.7017,-1.7033,-1.7102,-1.7105,-1.7057,-1.706,-1.7062,-1.7063,0,0,0,0,0,0,0,-1.6817,-1.6827,-1.692,-1.6901,-1.6903,-1.6905,-1.6912,-1.6958,-1.6983,-1.6943,-1.6944,-1.6952,-1.7011,-1.7029,-1.7035,-1.7106,-1.7057,-1.7061,-1.7064,-1.7066,-1.7226,-1.7227,0,0,0,0,0,0,-1.681,-1.6823,-1.6918,-1.6922,-1.6858,-1.6908,-1.6916,-1.6939,-1.6983,-1.6988,-1.6953,-1.6951,-1.7022,-1.703,-1.7038,-1.7105,-1.7062,-1.7066,-1.7068,-1.7224,-1.7226,-1.7228,0,0,0,0,0,0,-1.6807,-1.6818,-1.6915,-1.6873,-1.6885,-1.6912,-1.6937,-1.6941,-1.6958,-1.699,-1.6995,-1.6966,-1.7022,-1.7032,-1.7084,-1.7108,-1.7068,-1.7072,-1.7222,-1.7225,-1.7227,-1.7241,0,0,0,0,0,0,-1.6803,-1.6817,-1.6837,-1.6873,-1.6887,-1.6958,-1.6938,-1.6943,-1.6965,-1.6964,-1.7003,-1.7008,-1.7021,-1.7077,-1.7088,-1.7113,-1.7075,-1.722,-1.7223,-1.7226,-1.7238,-1.7243,-1.7248,0,0,0,0,0,-1.6799,-1.6838,-1.6838,-1.6849,-1.6912,-1.6959,-1.6967,-1.698,-1.6967,-1.6988,-1.7009,-1.7007,-1.7104,-1.7082,-1.7095,-1.7122,-1.7219,-1.7222,-1.7226,-1.7236,-1.7242,-1.7248,0,0,0,0,0,0,-1.6805,-1.6843,-1.6843,-1.6895,-1.6924,-1.6959,-1.6985,-1.6986,-1.702,-1.7018,-1.7034,-1.7043,-1.7095,-1.7114,-1.7089,-1.7178,-1.716,-1.7166,-1.7163,-1.717,-1.7174,-1.7168,-1.7079,0,0,0,0,0,-1.6812,-1.6846,-1.6878,-1.6921,-1.6935,-1.6958,-1.6979,-1.6987,-1.7018,-1.703,-1.7054,-1.7086,-1.7124,-1.7148,-1.7184,-1.7242,-1.7251,-1.7267,-1.7271,-1.7275,-1.728,-1.7313,-1.7321,-1.724,-1.724,-1.724,0,0,-1.6828,-1.6853,-1.6873,-1.6923,-1.6946,-1.6982,-1.6968,-1.7007,-1.7034,-1.7036,-1.7086,-1.7106,-1.7142,-1.7197,-1.7223,-1.7215,-1.7305,-1.728,-1.7283,-1.7286,-1.7318,-1.7326,-1.7332,-1.7243,-1.7242,-1.7242,0,0,-1.6874,-1.6896,-1.6935,-1.6959,-1.6994,-1.7009,-1.7019,-1.7054,-1.7067,-1.7117,-1.712,-1.7155,-1.7219,-1.7245,-1.7266,-1.7326,-1.7326,-1.7338,-1.7362,-1.7395,-1.7401,-1.7407,-1.7428,-1.7436,-1.7343,-1.7343,-1.7343,0,-1.6889,-1.6942,-1.6955,-1.6994,-1.7016,-1.702,-1.706,-1.7083,-1.7129,-1.7145,-1.7136,-1.7217,-1.7242,-1.7304,-1.7319,-1.7336,-1.7349,-1.7332,-1.7399,-1.7405,-1.741,-1.7431,-1.7439,-1.7344,-1.7344,-1.7344,-1.7344,0,-1.6959,-1.6996,-1.7024,-1.7067,-1.7093,-1.7132,-1.7153,-1.7178,-1.7185,-1.7202,-1.7254,-1.7285,-1.7328,-1.7343,-1.735,-1.7407,-1.7401,-1.7395,-1.7377,-1.7419,-1.7439,-1.7447,-1.7346,-1.7345,-1.7345,-1.7345,0,0,-1.7009,-1.706,-1.707,-1.7091,-1.7131,-1.7161,-1.7202,-1.7243,-1.7265,-1.7297,-1.7333,-1.7388,-1.7384,-1.7408,-1.7419,-1.7447,-1.7493,-1.7438,-1.7439,-1.7447,-1.7559,-1.7563,-1.7572,-1.7495,-1.7496,-1.7498,-1.7556,0,-1.706,-1.713,-1.7144,-1.7206,-1.7242,-1.7247,-1.7283,-1.7313,-1.7331,-1.7365,-1.7386,-1.7425,-1.7415,-1.743,-1.7459,-1.7481,-1.7516,-1.7478,-1.7529,-1.7531,-1.7518,-1.7582,-1.7585,-1.7639,-1.7564,-1.7565,-1.7566,0,-1.7127,-1.716,-1.7226,-1.7263,-1.7278,-1.731,-1.735,-1.7382,-1.7418,-1.7429,-1.7458,-1.7465,-1.751,-1.7491,-1.7555,-1.7528,-1.7551,-1.7566,-1.7568,-1.7572,-1.755,-1.7588,-1.7657,-1.7664,-1.7579,-1.7578,-1.7577,0,-1.7157,-1.7219,-1.7266,-1.7283,-1.7328,-1.735,-1.737,-1.7404,-1.7429,-1.7465,-1.7481,-1.7523,-1.7545,-1.7578,-1.7598,-1.7582,-1.766,-1.7642,-1.7671,-1.7671,-1.7686,-1.7684,-1.7759,-1.7702,-1.7702,-1.7702,-1.7702,0,-1.7211,-1.7251,-1.728,-1.7309,-1.7354,-1.7372,-1.7417,-1.7437,-1.7468,-1.7502,-1.7511,-1.7543,-1.7568,-1.7605,-1.7621,-1.7671,-1.7682,-1.7693,-1.7697,-1.7691,-1.769,-1.7705,-1.7702,-1.7704,-1.7703,-1.7703,-1.7703,0,-1.7251,-1.7272,-1.7324,-1.7362,-1.7373,-1.7405,-1.7439,-1.7469,-1.7488,-1.7531,-1.7543,-1.7573,-1.7617,-1.764,-1.7696,-1.7707,-1.7763,-1.7765,-1.775,-1.7752,-1.7779,-1.7776,-1.7865,-1.7878,-1.7814,-1.7814,-1.7815,0,-1.7283,-1.7314,-1.7356,-1.7379,-1.7399,-1.7437,-1.7462,-1.7482,-1.7508,-1.7552,-1.7577,-1.7621,-1.7657,-1.7728,-1.7755,-1.7799,-1.7801,-1.783,-1.7808,-1.7802,-1.7801,-1.7799,-1.7802,-1.7833,-1.7833,-1.7834,-1.7834,0,-1.7339,-1.7348,-1.7383,-1.7423,-1.7453,-1.7485,-1.7517,-1.7537,-1.7562,-1.7592,-1.7636,-1.7664,-1.7721,-1.7765,-1.7811,-1.7834,-1.7839,-1.7841,-1.785,-1.7845,-1.7835,-1.784,-1.776,-1.7839,-1.7838,-1.7838,-1.7838,-1.7838,-1.7376,-1.7404,-1.7438,-1.7478,-1.7504,-1.7534,-1.7564,-1.7587,-1.7624,-1.7671,-1.7681,-1.7729,-1.7766,-1.7827,-1.7852,-1.7891,-1.7885,-1.7898,-1.7901,-1.7904,-1.7905,-1.783,-1.7899,-1.7899,-1.7899,-1.7899,-1.7899,0,-1.7431,-1.7454,-1.7491,-1.7535,-1.7567,-1.7569,-1.7606,-1.7632,-1.7673,-1.7707,-1.7743,-1.7795,-1.7839,-1.7871,-1.7916,-1.7941,-1.7945,-1.7952,-1.795,-1.7956,-1.7907,-1.7895,-1.7949,-1.7949,-1.7949,-1.7949,-1.7949,-1.7949,-1.7464,-1.7511,-1.7525,-1.7587,-1.761,-1.7656,-1.7676,-1.7706,-1.7733,-1.779,-1.7826,-1.7847,-1.7881,-1.7929,-1.797,-1.7978,-1.7995,-1.8002,-1.8011,-1.7964,-1.7959,-1.7954,-1.7942,-1.8005,-1.8005,-1.8056,-1.8056,-1.8057]},{"header":{"parameterUnit":"m.s-1","parameterCategory":1,"la1":30.2991,"la2":30.254,"lo1":-89.0895,"lo2":-89.0444,"dy":0.0017,"dx":0.0017,"nx":28,"ny":28,"refTime":"2025-12-21T09:00:00:Z","depth":0,"parameterNumber":3,"parameterNumberName":"V-component_of_WINDS"},"data":[0,0,0,0,0,0,0,0,0,0,0,0,0,0,0,0,0,0,0,0,0,0,0,0,0,0,0,0,0,0,0,0,0,0,0,0,0,0,0,0,0,0,0,0,0,0,0,0,0,0,0,0,0,0,0,0,0,0,0.6185,0.6186,0,0.6297,0.6298,0.6299,0.6299,0.6298,0.6297,0.6295,0.6414,0.6419,0.6423,0,0,0,0,0,0,0,0,0,0,0,0,0,0.5978,0.5982,0.6185,0.6186,0.6187,0.6297,0.6298,0.63,0.63,0.6298,0.6296,0.6294,0.6413,0.6418,0.6424,0,0,0,0,0,0,0,0,0,0,0,0,0,0.6077,0.5983,0.6184,0.6201,0.6203,0.6296,0.6298,0.63,0.63,0.6298,0.6296,0.6294,0.6411,0.6418,0.6424,0.651,0,0,0.6445,0.6448,0,0,0,0,0,0,0,0,0.6071,0.6084,0.6197,0.62,0.6203,0.6282,0.6269,0.6371,0.6301,0.6263,0.6295,0.6293,0.6372,0.6382,0.6408,0.6516,0.6521,0.6446,0.645,0.6453,0.6455,0,0,0,0,0,0,0,0.6064,0.608,0.6229,0.6198,0.6202,0.6205,0.6216,0.6288,0.6329,0.6266,0.6267,0.628,0.6373,0.6401,0.6411,0.6523,0.6445,0.6452,0.6456,0.6458,0.6712,0.6714,0,0,0,0,0,0,0.6053,0.6074,0.6226,0.6233,0.613,0.621,0.6223,0.6259,0.6328,0.6336,0.6282,0.6279,0.6391,0.6403,0.6415,0.6524,0.6453,0.6459,0.6463,0.6709,0.6712,0.6715,0,0,0,0,0,0,0.6049,0.6067,0.6221,0.6153,0.6173,0.6216,0.6256,0.6262,0.629,0.6339,0.6347,0.6302,0.639,0.6405,0.6487,0.6528,0.6462,0.6468,0.6706,0.671,0.6714,0.6739,0,0,0,0,0,0,0.6043,0.6065,0.6096,0.6154,0.6177,0.6289,0.6258,0.6266,0.6301,0.6299,0.6361,0.6369,0.6389,0.6477,0.6494,0.6536,0.6474,0.6703,0.6708,0.6713,0.6735,0.6744,0.6751,0,0,0,0,0,0.6036,0.6099,0.6098,0.6116,0.6216,0.6292,0.6305,0.6325,0.6304,0.6338,0.637,0.6367,0.652,0.6486,0.6505,0.6549,0.67,0.6706,0.6712,0.6732,0.6742,0.6751,0,0,0,0,0,0,0.6045,0.6107,0.6106,0.6189,0.6235,0.6291,0.6334,0.6335,0.6389,0.6385,0.641,0.6424,0.6507,0.6536,0.6496,0.6638,0.6608,0.6618,0.6616,0.6627,0.6634,0.6626,0.6479,0,0,0,0,0,0.6057,0.6111,0.6163,0.6232,0.6255,0.629,0.6324,0.6336,0.6385,0.6405,0.6443,0.6492,0.6552,0.659,0.6648,0.6739,0.6755,0.6779,0.6787,0.6794,0.6803,0.6858,0.687,0.6735,0.6735,0.6735,0,0,0.6082,0.6122,0.6155,0.6235,0.6271,0.633,0.6306,0.6368,0.6413,0.6414,0.6495,0.6525,0.6582,0.667,0.6711,0.6697,0.6844,0.6801,0.6806,0.6812,0.6865,0.6878,0.6889,0.6739,0.6738,0.6738,0,0,0.6158,0.6193,0.6256,0.6294,0.635,0.6374,0.6389,0.6446,0.6466,0.6547,0.655,0.6605,0.6706,0.6747,0.6782,0.6878,0.6879,0.6896,0.6938,0.6991,0.7002,0.7012,0.705,0.7062,0.6904,0.6905,0.6905,0,0.6183,0.6269,0.6288,0.6351,0.6388,0.6392,0.6458,0.6495,0.6567,0.6594,0.6577,0.6707,0.6745,0.6845,0.6869,0.6895,0.6916,0.689,0.6999,0.7009,0.7018,0.7054,0.7068,0.6906,0.6906,0.6906,0.6906,0,0.6299,0.6359,0.6403,0.6473,0.6515,0.6579,0.6611,0.6651,0.6661,0.6687,0.6772,0.6818,0.6887,0.6911,0.6921,0.7014,0.7005,0.6993,0.6963,0.7032,0.7067,0.7081,0.6909,0.6909,0.6908,0.6908,0,0,0.6383,0.6465,0.6481,0.6515,0.6579,0.6627,0.6693,0.676,0.6796,0.6846,0.6905,0.6992,0.6983,0.7022,0.7037,0.7083,0.7161,0.7066,0.7068,0.7085,0.7272,0.7282,0.7297,0.7161,0.7164,0.7166,0.7268,0,0.6468,0.6584,0.6605,0.6708,0.6766,0.6772,0.6831,0.6878,0.6906,0.6961,0.6992,0.7055,0.7036,0.706,0.7106,0.7142,0.7199,0.7134,0.7219,0.7222,0.7207,0.7315,0.7325,0.7418,0.7281,0.7283,0.7285,0,0.6583,0.6637,0.6745,0.6805,0.683,0.6882,0.6947,0.6999,0.7054,0.7071,0.7117,0.7127,0.72,0.7166,0.7268,0.7224,0.726,0.7283,0.7287,0.7298,0.7259,0.7331,0.7448,0.7464,0.7306,0.7304,0.7303,0,0.6638,0.6738,0.6817,0.6845,0.6915,0.6953,0.6984,0.7037,0.7077,0.7134,0.7162,0.7227,0.7263,0.7315,0.7344,0.7316,0.7446,0.7413,0.7465,0.7465,0.7493,0.7491,0.7621,0.7512,0.7512,0.7512,0.7512,0,0.6733,0.6799,0.6843,0.6892,0.6968,0.6993,0.7069,0.71,0.7148,0.7205,0.7214,0.7268,0.7302,0.7362,0.7385,0.7469,0.7485,0.7503,0.7509,0.7504,0.7502,0.7529,0.7525,0.7516,0.7515,0.7514,0.7513,0,0.6807,0.6838,0.6926,0.6986,0.7003,0.7057,0.711,0.716,0.7188,0.726,0.7279,0.7324,0.7395,0.7429,0.7517,0.7533,0.7629,0.7629,0.7611,0.7613,0.7664,0.766,0.7818,0.7842,0.7715,0.7716,0.7717,0,0.6867,0.6918,0.6985,0.7024,0.7056,0.7118,0.7159,0.7187,0.723,0.7299,0.7341,0.7413,0.7471,0.7586,0.7628,0.7696,0.77,0.7751,0.7711,0.7705,0.7705,0.7703,0.771,0.7759,0.776,0.7761,0.7762,0,0.697,0.6984,0.7042,0.7107,0.7156,0.7209,0.7261,0.7292,0.7329,0.7377,0.745,0.7496,0.7587,0.7659,0.7731,0.7767,0.7772,0.7774,0.779,0.7786,0.7775,0.7785,0.7633,0.777,0.777,0.7769,0.7768,0.7768,0.7041,0.7089,0.7144,0.721,0.7252,0.7302,0.7352,0.7387,0.7448,0.7523,0.7537,0.7615,0.7673,0.7771,0.7809,0.7872,0.7861,0.7883,0.789,0.7896,0.79,0.7763,0.7885,0.7885,0.7885,0.7885,0.7885,0,0.7148,0.7184,0.7244,0.7317,0.737,0.7369,0.7428,0.7473,0.7541,0.7594,0.7652,0.7738,0.7809,0.7858,0.7931,0.7973,0.7977,0.7991,0.799,0.7999,0.7904,0.7885,0.7987,0.7987,0.7987,0.7987,0.7987,0.7987,0.721,0.7292,0.7313,0.7418,0.7454,0.7531,0.7565,0.7612,0.7654,0.775,0.7808,0.7839,0.7892,0.7969,0.8036,0.8048,0.8076,0.8091,0.8104,0.8015,0.8005,0.7995,0.7976,0.8096,0.8096,0.8193,0.8194,0.8195]}]]